Change the Weather History Date:

Monday, January 3, 2011

  Actual Average Record
Temperature  
Mean Temperature 26 °F -  
Max Temperature 30 °F 38 °F 60 °F (1964)
Min Temperature 21 °F 22 °F 9 °F (1970)
Degree Days  
Heating Degree Days 40    
Moisture  
Dew Point 12 °F    
Average Humidity 55    
Maximum Humidity 64    
Minimum Humidity 47    
Precipitation  
Precipitation 0.00 in - - ()
Sea Level Pressure  
Sea Level Pressure 30.20 in    
Wind  
Wind Speed 1 mph (NE)    
Max Wind Speed 5 mph    
Max Gust Speed -    
Visibility 9 miles    
Events      
Averages and records for this station are not official NWS values.
T = Trace of Precipitation, MM = Missing Value Source: NWS Daily Summary

Daily Weather History Graph

Daily Weather History Graph

Search for Another Location

Airport or City:

Trip Planner

Search our weather history database for the weather conditions in past years. The results will help you decide how hot, cold, wet, or windy it might be!

Date:

Astronomy

Jan. 03, 2011 Rise Set
Actual Time 7:39 AM MST 5:21 PM MST
Civil Twilight 7:10 AM MST 5:50 PM MST
Nautical Twilight 6:37 AM MST 6:22 PM MST
Astronomical Twilight 6:06 AM MST 6:54 PM MST
Moon 7:06 AM MST (1/3) 4:57 PM MST (1/3)
Length of Visible Light 10h 40m
Length of Day
9h 42m
Waning Crescent, 0% of the Moon is Illuminated
Jan 3
Waning Crescent
Jan 4
New
Jan 12
First Quarter
Jan 19
Full
Jan 26
Last Quarter

Hourly Weather History & Observations

Time (MST) Temp. Windchill Dew Point Humidity Pressure Visibility Wind Dir Wind Speed Gust Speed Precip Events Conditions
12:53 AM 23.0 °F 18.4 °F 10.0 °F 58% 30.22 in 10.0 mi NE 3.5 mph - N/A   Mostly Cloudy
1:53 AM 23.0 °F - 10.0 °F 58% 30.22 in 10.0 mi Calm Calm - N/A   Overcast
2:53 AM 21.9 °F - 10.0 °F 60% 30.21 in 10.0 mi Calm Calm - N/A   Overcast
3:53 AM 23.0 °F - 10.0 °F 58% 30.20 in 10.0 mi Calm Calm - N/A   Overcast
4:53 AM 23.0 °F - 10.0 °F 58% 30.19 in 10.0 mi Calm Calm - N/A   Partly Cloudy
5:53 AM 23.0 °F - 10.9 °F 60% 30.20 in 10.0 mi Calm Calm - N/A   Overcast
6:53 AM 23.0 °F - 10.9 °F 60% 30.21 in 10.0 mi Calm Calm - N/A   Overcast
7:53 AM 21.9 °F - 10.9 °F 63% 30.22 in 10.0 mi Calm Calm - N/A   Mostly Cloudy
8:53 AM 24.1 °F - 10.0 °F 55% 30.22 in 10.0 mi Calm Calm - N/A   Overcast
9:53 AM 26.1 °F 20.5 °F 10.0 °F 51% 30.22 in 10.0 mi East 4.6 mph - N/A   Overcast
10:53 AM 27.0 °F - 10.9 °F 51% 30.22 in 10.0 mi Calm Calm - N/A   Scattered Clouds
11:53 AM 27.0 °F 21.6 °F 10.0 °F 49% 30.20 in 10.0 mi NNE 4.6 mph - N/A   Overcast
1:53 PM 28.9 °F - 12.0 °F 49% 30.16 in 10.0 mi Calm Calm - N/A   Overcast
2:53 PM 30.0 °F 26.5 °F 12.0 °F 47% 30.16 in 10.0 mi Variable 3.5 mph - N/A   Overcast
3:53 PM 28.9 °F 25.2 °F 10.9 °F 47% 30.16 in 10.0 mi East 3.5 mph - N/A   Overcast
4:53 PM 28.9 °F 25.2 °F 10.9 °F 47% 30.17 in 10.0 mi NE 3.5 mph - N/A   Overcast
5:53 PM 28.9 °F - 12.0 °F 49% 30.18 in 10.0 mi Calm Calm - N/A   Overcast
6:53 PM 28.0 °F - 12.9 °F 53% 30.20 in 10.0 mi Calm Calm - N/A   Overcast
7:53 PM 28.0 °F - 12.9 °F 53% 30.22 in 10.0 mi Calm Calm - N/A   Overcast
8:49 PM 26.6 °F - 14.0 °F 59% 30.14 in 10.0 mi Calm Calm - N/A   Mostly Cloudy
8:53 PM 27.0 °F - 14.0 °F 58% 30.21 in 10.0 mi Calm Calm - N/A   Mostly Cloudy
9:27 PM 28.4 °F - 14.0 °F 55% 30.14 in 10.0 mi Calm Calm - N/A   Overcast
9:53 PM 28.0 °F - 14.0 °F 56% 30.22 in 7.0 mi Calm Calm - N/A   Overcast
10:53 PM 27.0 °F - 15.1 °F 61% 30.24 in 3.0 mi Calm Calm - N/A   Haze
11:01 PM 26.6 °F - 15.8 °F 64% 30.17 in 2.5 mi Calm Calm - N/A   Haze
11:08 PM 28.4 °F - 15.8 °F 59% 30.17 in 10.0 mi Calm Calm - N/A   Overcast
11:53 PM 28.0 °F - 15.1 °F 58% 30.23 in 10.0 mi Calm Calm - N/A   Overcast